Regional Weather Roundup
Issued by NWS Kansas City/Pleasant Hill, MO

Home | Current Version | Previous Version | Text Only | Print | Product List | Glossary On
Versions: 1 2 3 4 5 6 7 8 9 10 11 12 13 14 15 16 17 18 19 20 21 22 23 24 25 26 27 28 29 30 31 32 33 34 35 36 37 38 39 40 41 42 43 44 45 46 47 48 49 50
000
ASUS43 KEAX 200811
RWREAX

WEATHER ROUNDUP FOR EASTERN KANSAS AND NORTHWEST MISSOURI
NATIONAL WEATHER SERVICE KANSAS CITY/PLEASANT HILL MO
300 AM CDT SUN APR 20 2014

KSZ040-057-103>105-MOZ028-029-037-043-200900-
...KANSAS CITY METROPOLITAN AREA...

CITY           SKY/WX    TMP DP  RH WIND       PRES   REMARKS
K.C. INTL      PTCLDY    56  46  69 S10       30.09S
K.C. DOWNTOWN  CLEAR     63  45  51 CALM      30.09S
LEES SUMMIT    PTCLDY    60  44  55 S7        30.11S
OLATHE - IXD   CLEAR     56  45  66 S6        30.10F
OLATHE - OJC   CLEAR     57  44  62 SE3       30.10S
LAWRENCE       PTCLDY    56  46  69 SE9       30.09S

$$

MOZ001>008-011>017-020>025-030>033-038>040-044>046-053-054-200900-
...NORTHERN AND CENTRAL MISSOURI...

CITY           SKY/WX    TMP DP  RH WIND       PRES   REMARKS
ST. JOSEPH     PTCLDY    57  45  64 S8        30.07F
MOSBY          FAIR      50  46  87 CALM      30.10S
WARRENSBURG    MOCLDY   N/A N/A N/A SE6       30.12R
WHITEMAN AFB   MOCLDY    56  39  52 S7        30.12S
CLINTON        CLOUDY    61  46  59 S6        30.13S
SEDALIA        MOCLDY    58  44  60 S9        30.14S
WARSAW         NOT AVBL
MARSHALL         N/A     63  45  51 S5        30.14R
CHILLICOTHE      N/A     53  44  71 SE3       30.11S
MOBERLY        MOCLDY    57  41  54 SE8       30.15S
KIRKSVILLE     CLEAR     50  41  71 SE6       30.13S

$$

MOZ041-047>049-056>058-063>065-088>090-097-200900-
...EASTERN AND SOUTHERN MISSOURI...

CITY           SKY/WX    TMP DP  RH WIND       PRES   REMARKS
ST. LOUIS INTL MOCLDY    58  40  51 CALM      30.19R
SPIRIT OF STL  PTCLDY    50  43  77 CALM      30.18R
COLUMBIA       PTCLDY    56  40  55 SE10      30.15S
JEFFERSON CITY PTCLDY    56  40  55 E3        30.16R
MEXICO         MOCLDY    52  43  71 SE8       30.16S
HANNIBAL       CLOUDY    61  36  39 S6        30.16S
ROLLA          PTCLDY    54  41  61 S9        30.17R
LEBANON        PTCLDY    57  43  58 S6        30.18S
OSAGE BEACH    PTCLDY    57  39  51 SE3       30.18S
SPRINGFIELD    MOCLDY    57  45  64 SE8       30.15S
BRANSON        CLOUDY    59  46  63 S5        30.18S
NEVADA         CLOUDY    55  46  71 S7        30.13S
JOPLIN         CLOUDY    61  48  62 S10       30.12F
WEST PLAINS    CLEAR     48  40  73 CALM      30.20R

$$

IAZ060-094-KSZ022-034>040-054-083-096-NEZ052-066-093-200900-
...KANSAS...SOUTHEAST NEBRASKA AND IOWA...

CITY           SKY/WX    TMP DP  RH WIND       PRES   REMARKS
TOPEKA         PTCLDY    64  46  52 S7        30.07S
MANHATTAN      MOCLDY    64  48  56 SW10      30.04S
EMPORIA        CLOUDY    59  46  62 S12       30.07S
CHANUTE        PTCLDY    55  47  74 S6        30.10S
WICHITA        CLOUDY    60  49  66 S10       30.07S
OMAHA          MOCLDY    64  44  48 S16       29.99S
LINCOLN        MOCLDY    66  45  46 S20G28    29.96F
FALLS CITY     MOCLDY    64  46  52 S13       30.04S
LAMONI         MOCLDY    59  43  55 S9        30.08S
DES MOINES     MOCLDY    61  44  53 S7        30.06S

$$




USA.gov is the U.S. government's official web portal to all federal, state and local government web resources and services.